Newcastle, WY

5:51 PM MST on November 11, 2019 (GMT -0700)
Mondell

Weather History for KECS - September, 2019

Change the Weather History Date:

Friday, September 20, 2019

  Actual Average (WUND) Record (WUND)
Temperature  
Mean Temperature 65 °F -  
Max Temperature 75 °F - - (-1)
Min Temperature 55 °F - - (-1)
Growing Degree Days 15 (Base 50)    
Moisture  
Dew Point 50 °F    
Average Humidity 59    
Maximum Humidity 88    
Minimum Humidity 41    
Precipitation  
Precipitation 0.00 in - - ()
Sea Level Pressure  
Sea Level Pressure 29.81 in    
Wind  
Wind Speed 11 mph (NW)    
Max Wind Speed 23 mph    
Max Gust Speed 37 mph    
Visibility 10 miles    
Events Rain , Thunderstorm    
Averages and records for this station are not official NWS values.
T = Trace of Precipitation, MM = Missing Value Source: NWS Daily Summary

Daily Weather History Graph

Daily Weather History Graph

Search for Another Location

Airport or City:

Astronomy

Sep. 20, 2019 Rise Set
Actual Time 6:42 AM MDT 6:58 PM MDT
Civil Twilight 6:13 AM MDT 7:27 PM MDT
Nautical Twilight 5:39 AM MDT 8:01 PM MDT
Astronomical Twilight 5:04 AM MDT 8:35 PM MDT
Moon 10:38 PM MDT (9/20) 1:00 PM MDT (9/20)
Length of Visible Light 13h 14m
Length of Day
12h 16m
Waning Gibbous, 64% of the Moon is Illuminated
Sep 20
Waning Gibbous
Sep 21
Last Quarter
Sep 28
New
Oct 5
First Quarter
Oct 13
Full

Hourly Weather History & Observations

Time (MDT) Temp. Dew Point Humidity Pressure Visibility Wind Dir Wind Speed Gust Speed Precip Events Conditions
12:15 AM 69.8 °F 53.6 °F 56% 29.85 in 10.0 mi ESE 17.3 mph 32.2 mph N/A   Clear
12:55 AM 68.0 °F 51.8 °F 56% 29.85 in 10.0 mi SE 17.3 mph 26.5 mph N/A   Scattered Clouds
1:15 AM 68.0 °F 50.0 °F 52% 29.85 in 10.0 mi ESE 16.1 mph 25.3 mph N/A   Scattered Clouds
1:35 AM 69.8 °F 50.0 °F 49% 29.84 in 10.0 mi ESE 23.0 mph 32.2 mph N/A   Scattered Clouds
1:55 AM 69.8 °F 48.2 °F 46% 29.85 in 10.0 mi ESE 16.1 mph 24.2 mph N/A   Mostly Cloudy
2:15 AM 69.8 °F 46.4 °F 43% 29.83 in 10.0 mi ESE 18.4 mph 25.3 mph N/A   Scattered Clouds
2:35 AM 69.8 °F 46.4 °F 43% 29.82 in 10.0 mi ESE 16.1 mph 21.9 mph N/A   Clear
2:55 AM 69.8 °F 46.4 °F 43% 29.83 in 10.0 mi SE 9.2 mph 18.4 mph N/A Thunderstorm Clear
3:15 AM 66.2 °F 46.4 °F 49% 29.84 in 10.0 mi SSE 5.8 mph - N/A   Clear
3:35 AM 62.6 °F 46.4 °F 55% 29.85 in 10.0 mi Calm Calm - N/A   Clear
3:55 AM 66.2 °F 46.4 °F 49% 29.82 in 10.0 mi SSE 12.7 mph 19.6 mph N/A Thunderstorm Scattered Clouds
4:15 AM 66.2 °F 50.0 °F 56% 29.84 in 10.0 mi SE 13.8 mph 20.7 mph N/A Rain , Thunderstorm Light Thunderstorms and Rain
4:35 AM 62.6 °F 51.8 °F 68% 29.83 in 10.0 mi SSE 10.4 mph - N/A Rain Light Rain
4:55 AM 62.6 °F 51.8 °F 68% 29.82 in 10.0 mi SSE 6.9 mph - N/A Rain , Thunderstorm Light Thunderstorms and Rain
5:15 AM 62.6 °F 50.0 °F 63% 29.81 in 10.0 mi South 8.1 mph - N/A   Overcast
5:35 AM 64.4 °F 50.0 °F 59% 29.78 in 10.0 mi ESE 9.2 mph 19.6 mph N/A   Mostly Cloudy
5:55 AM 64.4 °F 50.0 °F 59% 29.78 in 10.0 mi ESE 12.7 mph 23.0 mph N/A   Scattered Clouds
6:15 AM 64.4 °F 50.0 °F 59% 29.78 in 10.0 mi ESE 13.8 mph 21.9 mph N/A   Scattered Clouds
6:35 AM 62.6 °F 50.0 °F 63% 29.78 in 10.0 mi NE 4.6 mph - N/A Thunderstorm Thunderstorm
6:55 AM 62.6 °F 50.0 °F 63% 29.77 in 10.0 mi East 5.8 mph - N/A   Scattered Clouds
7:15 AM 60.8 °F 50.0 °F 68% 29.79 in 10.0 mi South 9.2 mph - N/A   Clear
7:35 AM 60.8 °F 50.0 °F 68% 29.81 in 10.0 mi SSE 5.8 mph - N/A   Clear
7:55 AM 60.8 °F 51.8 °F 72% 29.81 in 10.0 mi SE 5.8 mph - N/A   Clear
8:15 AM 62.6 °F 50.0 °F 63% 29.83 in 10.0 mi SSE 8.1 mph - N/A   Clear
8:35 AM 68.0 °F 50.0 °F 52% 29.83 in 10.0 mi SE 16.1 mph 23.0 mph N/A   Clear
8:55 AM 69.8 °F 50.0 °F 49% 29.83 in 10.0 mi SSE 13.8 mph 23.0 mph N/A   Clear
9:15 AM 66.2 °F 51.8 °F 60% 29.83 in 10.0 mi NW 11.5 mph 21.9 mph N/A   Clear
9:35 AM 64.4 °F 51.8 °F 64% 29.82 in 10.0 mi NNW 9.2 mph - N/A   Clear
9:55 AM 64.4 °F 51.8 °F 64% 29.83 in 10.0 mi NW 12.7 mph 20.7 mph N/A   Clear
10:15 AM 62.6 °F 51.8 °F 68% 29.84 in 10.0 mi NNW 8.1 mph 20.7 mph N/A   Clear
10:35 AM 62.6 °F 51.8 °F 68% 29.83 in 10.0 mi NNW 8.1 mph - N/A   Clear
10:55 AM 64.4 °F 51.8 °F 64% 29.82 in 10.0 mi NW 5.8 mph - N/A   Clear
11:15 AM 66.2 °F 51.8 °F 60% 29.82 in 10.0 mi WNW 5.8 mph - N/A   Clear
11:35 AM 68.0 °F 51.8 °F 56% 29.83 in 10.0 mi West 4.6 mph - N/A   Clear
11:55 AM 69.8 °F 51.8 °F 53% 29.80 in 10.0 mi NW 5.8 mph - N/A   Scattered Clouds
12:15 PM 71.6 °F 51.8 °F 50% 29.80 in 10.0 mi Calm Calm - N/A   Clear
12:35 PM 73.4 °F 51.8 °F 47% 29.78 in 10.0 mi NW 4.6 mph - N/A   Clear
12:55 PM 73.4 °F 51.8 °F 47% 29.78 in 10.0 mi West 6.9 mph 17.3 mph N/A   Clear
1:15 PM 73.4 °F 51.8 °F 47% 29.77 in 10.0 mi NW 3.5 mph - N/A   Scattered Clouds
1:35 PM 75.2 °F 50.0 °F 41% 29.77 in 10.0 mi WNW 5.8 mph - N/A   Scattered Clouds
1:55 PM 73.4 °F 50.0 °F 44% 29.77 in 10.0 mi SW 6.9 mph - N/A   Mostly Cloudy
2:15 PM 71.6 °F 51.8 °F 50% 29.77 in 10.0 mi West 5.8 mph - N/A   Overcast
2:35 PM 69.8 °F 51.8 °F 53% 29.78 in 10.0 mi West 5.8 mph - N/A   Overcast
2:55 PM 69.8 °F 51.8 °F 53% 29.77 in 10.0 mi NW 8.1 mph - N/A   Mostly Cloudy
3:15 PM 69.8 °F 51.8 °F 53% 29.77 in 10.0 mi WNW 11.5 mph - N/A   Scattered Clouds
3:35 PM 71.6 °F 51.8 °F 50% 29.77 in 10.0 mi NW 11.5 mph 19.6 mph N/A   Clear
3:55 PM 73.4 °F 51.8 °F 47% 29.76 in 10.0 mi NW 9.2 mph - N/A   Clear
4:15 PM 73.4 °F 51.8 °F 47% 29.75 in 10.0 mi NNW 8.1 mph - N/A   Clear
4:35 PM 73.4 °F 51.8 °F 47% 29.74 in 10.0 mi WNW 10.4 mph - N/A   Clear
4:55 PM 73.4 °F 51.8 °F 47% 29.73 in 10.0 mi NW 6.9 mph - N/A   Clear
5:15 PM 73.4 °F 51.8 °F 47% 29.74 in 10.0 mi West 5.8 mph - N/A   Clear
5:35 PM 71.6 °F 50.0 °F 46% 29.74 in 10.0 mi Calm Calm - N/A   Clear
5:55 PM 69.8 °F 50.0 °F 49% 29.74 in 10.0 mi Calm Calm - N/A   Clear
6:15 PM 68.0 °F 51.8 °F 56% 29.75 in 10.0 mi Calm Calm - N/A Thunderstorm Mostly Cloudy
6:35 PM 68.0 °F 51.8 °F 56% 29.78 in 10.0 mi WSW 3.5 mph - N/A Rain Light Rain
6:55 PM 64.4 °F 53.6 °F 68% 29.80 in 10.0 mi WNW 10.4 mph 17.3 mph N/A Rain , Thunderstorm Light Thunderstorms and Rain
7:15 PM 57.2 °F 48.2 °F 72% 29.85 in 7.0 mi West 12.7 mph 36.8 mph N/A Rain , Thunderstorm Heavy Thunderstorms and Rain
7:35 PM 55.4 °F 50.0 °F 82% 29.80 in 10.0 mi NNW 11.5 mph 21.9 mph N/A Rain , Thunderstorm Light Thunderstorms and Rain
7:55 PM 57.2 °F 51.8 °F 82% 29.81 in 10.0 mi NW 10.4 mph - N/A Rain Light Rain
8:15 PM 55.4 °F 48.2 °F 77% 29.80 in 10.0 mi North 13.8 mph 19.6 mph N/A   Scattered Clouds
8:55 PM 57.2 °F 50.0 °F 77% 29.81 in 10.0 mi NNW 13.8 mph 23.0 mph N/A   Mostly Cloudy
9:15 PM 59.0 °F 50.0 °F 72% 29.81 in 10.0 mi NW 11.5 mph 20.7 mph N/A   Mostly Cloudy
9:35 PM 59.0 °F 50.0 °F 72% 29.81 in 10.0 mi NNW 11.5 mph 20.7 mph N/A   Overcast
9:55 PM 59.0 °F 48.2 °F 67% 29.82 in 10.0 mi NW 8.1 mph 16.1 mph N/A   Overcast
10:15 PM 59.0 °F 48.2 °F 67% 29.81 in 10.0 mi NNE 6.9 mph - N/A   Overcast
10:35 PM 59.0 °F 46.4 °F 63% 29.83 in 10.0 mi West 6.9 mph - N/A   Mostly Cloudy
10:55 PM 55.4 °F 50.0 °F 82% 29.84 in 10.0 mi West 13.8 mph 17.3 mph N/A   Scattered Clouds
11:15 PM 55.4 °F 51.8 °F 88% 29.87 in 10.0 mi NW 23.0 mph 36.8 mph N/A   Mostly Cloudy
11:35 PM 55.4 °F 50.0 °F 82% 29.84 in 10.0 mi NNW 15.0 mph 24.2 mph N/A   Light Drizzle
11:55 PM 55.4 °F 46.4 °F 72% 29.86 in 10.0 mi NNE 12.7 mph 20.7 mph N/A   Scattered Clouds